Location: Star Dogged Moon Observatory
(29.7756°N, 82.0783°W)
Time: 22:20:34
(UTC-04:00)

ARGOS - Visible Passes

Search period start: 20 August 2014 00:00
Search period end: 30 August 2014 00:00
Orbit: 821 x 835 km, 98.8° (Epoch: 19 August)

Date Brightness Start Highest point End Pass type
(mag) Time Alt. Az. Time Alt. Az. Time Alt. Az.
20 Aug 5.7 00:07:04 15° NW 00:07:04 15° NW 00:08:11 10° NW visible
20 Aug 4.9 22:06:59 18° NE 22:06:59 18° NE 22:09:15 10° NNE visible
20 Aug 5.4 23:48:31 20° NW 23:48:31 20° NW 23:50:19 10° NNW visible
21 Aug 5.2 21:48:26 12° NE 21:48:26 12° NE 21:49:38 10° NE visible
21 Aug 5.1 23:29:58 25° NNW 23:29:58 25° NNW 23:32:11 10° NNW visible
22 Aug 4.8 23:11:26 28° N 23:11:26 28° N 23:13:52 10° NNW visible
23 Aug 4.7 22:52:53 27° N 22:52:53 27° N 22:55:22 10° N visible
24 Aug 4.8 22:34:21 23° NNE 22:34:21 23° NNE 22:36:41 10° N visible
25 Aug 6.0 00:15:53 11° NW 00:15:53 11° NW 00:16:01 10° NW visible
25 Aug 5.0 22:15:48 18° NE 22:15:48 18° NE 22:17:46 10° NNE visible
25 Aug 5.8 23:57:20 15° NW 23:57:20 15° NW 23:58:19 10° NW visible
26 Aug 5.2 21:57:16 13° NE 21:57:16 13° NE 21:58:28 10° NNE visible
26 Aug 5.5 23:38:48 19° NNW 23:38:48 19° NNW 23:40:17 10° NNW visible
27 Aug 5.3 23:20:15 22° NNW 23:20:15 22° NNW 23:22:02 10° NNW visible
28 Aug 5.1 23:01:43 22° N 23:01:43 22° N 23:03:37 10° N visible
29 Aug 5.1 22:43:11 21° NNE 22:43:11 21° NNE 22:45:01 10° N visible
